Location: Dakoming
(43.5975°N, 104.0727°W)
Time: 05:23:31
(UTC+00:00)

BlueWalker 3 - Visible Passes

Search period start: 09 December 2022 00:00
Search period end: 19 December 2022 00:00
Orbit: 501 x 518 km, 53.2° (Epoch: 08 December)

Date Brightness Start Highest point End Pass type
(mag) Time Alt. Az. Time Alt. Az. Time Alt. Az.
09 Dec 1.9 01:22:23 10° NW 01:26:07 79° NNW 01:26:07 79° NNW visible
10 Dec 1.8 01:03:58 10° NW 01:07:53 88° NE 01:09:06 43° SE visible
10 Dec 5.4 02:43:57 10° W 02:43:58 10° W 02:43:58 10° W visible
11 Dec 1.9 00:45:33 10° NW 00:49:28 87° SW 00:52:21 17° SE visible
11 Dec 5.0 02:25:43 10° W 02:27:15 13° WSW 02:27:15 13° WSW visible
12 Dec 2.0 00:27:07 10° NW 00:31:02 82° SW 00:34:55 10° SE visible
12 Dec 5.0 02:07:32 10° WSW 02:09:07 12° SW 02:10:42 10° SSW visible
13 Dec 2.1 00:08:41 10° WNW 00:12:37 78° SW 00:16:29 10° SE visible
13 Dec 5.1 01:49:24 10° WSW 01:50:39 11° SW 01:51:54 10° SW visible
13 Dec 2.3 23:50:15 10° WNW 23:54:10 73° SW 23:58:01 10° SE visible
14 Dec 5.3 01:31:24 10° WSW 01:32:11 10° SW 01:32:56 10° SW visible
